Observations
| Time | Sensor | AQI | SAQ | Temp °C | Hum % | Pres Pa | CO μg/m³ | H₂S μg/m³ | NO μg/m³ | NO₂ μg/m³ | O₃ μg/m³ | SO₂ μg/m³ | CO₂e PPM | VOC PPM | PM1 μg/m³ | PM2.5 μg/m³ | PM4 μg/m³ | PM10 μg/m³ | TPS µm |
|---|---|---|---|---|---|---|---|---|---|---|---|---|---|---|---|---|---|---|---|
| Thursday 13 August 2026 | |||||||||||||||||||
| 01:53 | Trim Patrick St | 2 | 20.7 | 67 | 103,087 | 0 | 12.23 | 1.1 | 31.13 | 42.33 | 5.06 | 5.43 | 10.43 | 11.47 | |||||
| 01:52 | Trim Market St | 3 | 21.4 | 63 | 57,628 | 0 | 0 | 1.13 | 19.76 | 60.47 | 0 | 3.56 | 4.36 | 7.53 | |||||
| 01:52 | Trim Patrick St | 2 | 20.7 | 67 | 100,700 | 0 | 11.83 | 1.1 | 23.65 | 42.94 | 5.02 | 7.14 | 11.14 | 12.26 | |||||
| 01:51 | Trim Market St | 3 | 21.4 | 63 | 57,646 | 0 | 0 | 1.13 | 22.01 | 54.83 | 0 | 2.14 | 4.37 | 6.19 | |||||
| 01:51 | Trim Patrick St | 2 | 20.7 | 64 | 97,836 | 0 | 12.52 | 1.18 | 45.27 | 34.22 | 4.04 | 6.29 | 9.93 | 10.92 | |||||
| 01:50 | Trim Market St | 3 | 21.5 | 63 | 57,666 | 0 | 0 | 1.13 | 21.88 | 56.26 | 0 | 4.99 | 8.34 | 12.21 | |||||
| 01:50 | Trim Patrick St | 2 | 20.7 | 66 | 93,708 | 0 | 10.41 | 1.12 | 31.85 | 35.13 | 4.66 | 5.43 | 10.52 | 11.57 | |||||
| 01:49 | Trim Market St | 3 | 21.5 | 63 | 57,682 | 0 | 0 | 1.13 | 16.62 | 65.83 | 0 | 3.56 | 4.88 | 8.2 | |||||
| 01:49 | Trim Patrick St | 2 | 20.7 | 67 | 90,965 | 0 | 10.04 | 1.11 | 23.52 | 48.87 | 5.53 | 6.29 | 9.73 | 10.7 | |||||
| 01:48 | Trim Patrick St | 2 | 20.8 | 67 | 89,229 | 0 | 7.93 | 1.11 | 23.42 | 40.95 | 4.66 | 5.43 | 9.71 | 10.68 | |||||
| 01:47 | Trim Patrick St | 2 | 20.8 | 66 | 87,085 | 0 | 11.09 | 1.1 | 21.41 | 45.55 | 5.01 | 6.29 | 10.47 | 11.52 | |||||
| 01:47 | Trim Market St | 3 | 21.5 | 63 | 57,696 | 0 | 0 | 1.13 | 19.58 | 59.49 | 0 | 3.56 | 4.39 | 7.53 | |||||
| 01:46 | Trim Patrick St | 2 | 20.8 | 66 | 85,031 | 0 | 13.47 | 1.13 | 31.74 | 37.15 | 4.38 | 5.43 | 9.81 | 10.79 | |||||
| 01:45 | Trim Patrick St | 2 | 20.8 | 66 | 83,047 | 0 | 12.73 | 1.14 | 43.7 | 34.5 | 4.3 | 4.57 | 8.34 | 9.18 | |||||
| 01:45 | Trim Market St | 3 | 21.5 | 63 | 57,714 | 0 | 0 | 1.13 | 19.63 | 60.19 | 0 | 2.85 | 6.38 | 8.87 | |||||
| 01:44 | Trim Patrick St | 2 | 20.8 | 65 | 81,652 | 0 | 12.68 | 1.13 | 21.77 | 44.48 | 4.71 | 5.43 | 9.83 | 10.81 | |||||
| 01:43 | Trim Patrick St | 2 | 20.8 | 65 | 80,827 | 0 | 14.28 | 1.15 | 51.74 | 35.12 | 4.48 | 3.71 | 8.41 | 9.25 | |||||
| 01:42 | Trim Patrick St | 2 | 20.9 | 65 | 79,687 | 0 | 11.49 | 1.14 | 31.87 | 36.67 | 4.8 | 6.29 | 9.86 | 10.84 | |||||
| 01:42 | Trim Market St | 3 | 21.6 | 62 | 57,739 | 0 | 0 | 1.12 | 19.31 | 57.65 | 0 | 3.56 | 5.4 | 8.87 | |||||
| 01:41 | Trim Patrick St | 2 | 20.9 | 66 | 79,188 | 0 | 13.44 | 1.11 | 15.45 | 46.56 | 5.49 | 5.43 | 9.78 | 10.76 | |||||